{"data":{"norad_id":67909,"intl_designator":"2026-036F","name":"STARLINK-36822","alt_names":[],"object_type":"PAYLOAD","status":"ACTIVE","operator":null,"country":"US","launch_date":"2026-02-22","launch_site_code":"AFETR","launch_vehicle":null,"mission":null,"orbit_class":"UNKNOWN","rcs_meters":null,"size_class":null,"mass_kg":null,"dimensions":null,"purposes":["comms"],"wikipedia_slug":null,"has_3d_model":false,"image_url":null,"decayed_at":null,"tle_current":{"epoch":"2026-05-25T02:00:35.769312Z","epoch_age_seconds":63851,"freshness":"FRESH","line1":"1 67909U 26036F   26145.08374733  .00013102  00000+0  48470-3 0  9993","line2":"2 67909  43.0008 174.0036 0001519 276.4880  83.5798 15.27585953 15400","mean_motion":15.27585953,"eccentricity":0.0001519,"inclination_deg":43.0008,"raan_deg":174.0036,"arg_perigee_deg":276.488,"mean_anomaly_deg":83.5798,"bstar":0.0004847,"rev_number":1540,"period_min":94.266381356284,"perigee_km":481.98905921365,"apogee_km":484.07348213428,"semimajor_km":6861.168270674,"source":"CELESTRAK","updated_at":"2026-05-25T13:38:21.738442Z"}}}